Regional Weather Roundup
Issued by NWS State College, PA

Home | Current Version | Previous Version | Graphics & Text | Print | Product List | Glossary On
Versions: 1 2 3 4 5 6 7 8 9 10 11 12 13 14 15 16 17 18 19 20 21 22 23 24 25 26 27 28 29 30 31 32 33 34 35 36 37 38 39 40 41 42 43 44 45 46 47 48 49 50
000
ASUS41 KCTP 280410
RWRCTP

REGIONAL WEATHER ROUNDUP
NATIONAL WEATHER SERVICE STATE COLLEGE PA
1200 AM EDT THU MAY 28 2015

Note: "fair" indicates few or no clouds below 12,000 feet with no
significant weather and/or obstructions to visibility.

* = STATION THAT DOES NOT REPORT PRECIPITATION /E.G. RAIN...SNOW...ETC/
    THUNDER OR FOG.

PAZ002>004-007>009-013>016-020>023-029>032-280500-
WESTERN PENNSYLVANIA

CITY           SKY/WX    TMP DP  RH WIND       PRES   REMARKS
ERIE           LGT RAIN  64  59  83 S12G21    30.08R
MEADVILLE      LGT RAIN  61  59  93 VRB5      30.12F FOG
FRANKLIN*      CLOUDY    61  55  82 CALM      30.15F
NEW CASTLE     MOCLDY    63  63 100 CALM      30.13F
BEAVER COUNTY  NOT AVBL
BUTLER*        CLOUDY    66  57  72 NW7       30.17R
PITTSBURGH INT MOCLDY    71  62  73 N9        30.13R
PITTSBURGH     CLEAR     70  59  68 S8        30.13R
INDIANA*       PTCLDY    66  63  88 CALM      30.18S
LATROBE        CLEAR     64  63  94 CALM      30.16R
WASHINGTON CO* CLEAR     63  61  94 CALM      30.16R
$$

PAZ004>006-010>012-017>019-024>028-033>037-041-042-045-046-049>053-280500-
CENTRAL PENNSYLVANIA

CITY           SKY/WX    TMP DP  RH WIND       PRES   REMARKS
BRADFORD       MOCLDY    59  56  89 CALM      30.15F
DUBOIS         PTCLDY    69  59  70 SW5       30.13F
CLEARFIELD     PTCLDY    62  58  86 CALM      30.15S
JOHNSTOWN      CLEAR     67  58  72 S8        30.19R
ALTOONA        PTCLDY    64  59  83 CALM      30.17R
STATE COLLEGE  MOCLDY    69  60  72 SW6       30.14F
WILLIAMSPORT   CLEAR     69  64  84 N3        30.10S
SELINSGROVE    CLEAR     70  66  87 S3        30.13S
FT INDIANTOWN  NOT AVBL
CAPITAL CITY   CLEAR     69  65  86 CALM      30.14S
HARRISBURG     PTCLDY    69  65  86 E3        30.13S
YORK           CLEAR     70  66  87 CALM      30.15R
$$

PAZ038>040-043-044-047-048-054-055-060>062-067>071-280500-
EASTERN PENNSYLVANIA

CITY           SKY/WX    TMP DP  RH WIND       PRES   REMARKS
SCRANTON       CLEAR     66  63  90 CALM      30.14R FOG
MOUNT POCONO   CLEAR     64  61  90 W5        30.18S
ALLENTOWN      FOG       65  64  97 CALM      30.15S VSB 3/4
QUAKERTOWN*    FAIR      66  66 100 CALM      30.16F
READING        CLEAR     69  66  90 CALM      30.13F
LANCASTER      CLEAR     66  64  93 CALM      30.15S
COATESVILLE    PTCLDY    68  68 100 CALM      30.17F
POTTSTOWN      PTCLDY    67  67 100 CALM      30.16F
BLUE BELL      PTCLDY    72  70  94 S3        30.15S
DOYLESTOWN     PTCLDY    67  67 100 S3        30.15S FOG
WILLOW GROVE   NOT AVBL
NORTH PHILA    CLOUDY    74  67  78 SW7       30.17R
PHILADELPHIA   MOCLDY    73  70  90 S8        30.16S
$$


USA.gov is the U.S. government's official web portal to all federal, state and local government web resources and services.